Grand Island, NE

5:15 PM CDT on March 24, 2017 (GMT -0500)
Central Nebraska Regional

Weather History for KGRI - January, 2015

Change the Weather History Date:

Wednesday, January 21, 2015

  Actual Average Record
Temperature  
Mean Temperature 34 °F 25 °F  
Max Temperature 44 °F 36 °F 70 °F (1950)
Min Temperature 24 °F 14 °F -18 °F (1930)
Degree Days  
Heating Degree Days 31 40  
Month to date heating degree days 884 840  
Since 1 July heating degree days 3322 3359  
Cooling Degree Days 0 0  
Month to date cooling degree days 0 0  
Year to date cooling degree days 0 0  
Moisture  
Dew Point 24 °F    
Average Humidity 67    
Maximum Humidity 84    
Minimum Humidity 49    
Precipitation  
Precipitation 0.00 in 0.02 in 0.40 in (1915)
Month to date precipitation 0.03 0.34  
Year to date precipitation 0.03 0.34  
Snow  
Snow 0.00 in 0.20 in 4.00 in (1916)
Month to date snowfall 0.9 4.1  
Since 1 July snowfall 9.0 13.4  
Snow Depth 0.00 in    
Sea Level Pressure  
Sea Level Pressure 30.32 in    
Wind  
Wind Speed 12 mph (NW)    
Max Wind Speed 21 mph    
Max Gust Speed 26 mph    
Visibility 10 miles    
Events      
T = Trace of Precipitation, MM = Missing Value Source: NWS Daily Summary

Daily Weather History Graph

Daily Weather History Graph

Search for Another Location

Airport or City:

Trip Planner

Search our weather history database for the weather conditions in past years. The results will help you decide how hot, cold, wet, or windy it might be!

Date:

Astronomy

Jan. 21, 2015 Rise Set
Actual Time 7:52 AM CST 5:36 PM CST
Civil Twilight 7:22 AM CST 6:06 PM CST
Nautical Twilight 6:49 AM CST 6:40 PM CST
Astronomical Twilight 6:16 AM CST 7:12 PM CST
Moon 8:22 AM CST (1/21) 7:27 PM CST (1/21)
Length of Visible Light 10h 43m
Length of Day
9h 43m
New Moon, 2% of the Moon is Illuminated
Jan 21
New Moon
Jan 26
First Quarter
Feb 3
Full
Feb 11
Last Quarter
Feb 18
New

Hourly Weather History & Observations

Time (CST) Temp. Windchill Dew Point Humidity Pressure Visibility Wind Dir Wind Speed Gust Speed Precip Events Conditions
12:53 AM 27.0 °F 18.7 °F 23.0 °F 85% 30.14 in 10.0 mi West 8.1 mph - N/A   Clear
1:53 AM 26.1 °F 17.6 °F 21.9 °F 84% 30.19 in 10.0 mi West 8.1 mph - N/A   Clear
2:53 AM 28.0 °F 19.3 °F 24.1 °F 85% 30.21 in 10.0 mi West 9.2 mph - N/A   Clear
3:53 AM 27.0 °F 18.0 °F 23.0 °F 85% 30.21 in 10.0 mi West 9.2 mph - N/A   Clear
4:53 AM 26.1 °F 18.4 °F 23.0 °F 88% 30.22 in 10.0 mi West 6.9 mph - N/A   Clear
5:53 AM 27.0 °F 18.0 °F 23.0 °F 85% 30.24 in 10.0 mi WNW 9.2 mph - N/A   Clear
6:53 AM 26.1 °F 16.2 °F 21.9 °F 84% 30.26 in 10.0 mi West 10.4 mph - N/A   Clear
7:53 AM 26.1 °F 16.8 °F 21.0 °F 81% 30.28 in 10.0 mi West 9.2 mph - N/A   Clear
8:53 AM 28.9 °F 18.6 °F 21.9 °F 75% 30.29 in 10.0 mi West 12.7 mph - N/A   Clear
9:53 AM 34.0 °F 24.2 °F 24.1 °F 67% 30.30 in 10.0 mi WNW 15.0 mph - N/A   Clear
10:53 AM 39.9 °F 31.4 °F 25.0 °F 55% 30.31 in 10.0 mi NW 16.1 mph - N/A   Clear
11:53 AM 42.1 °F 35.2 °F 24.1 °F 49% 30.30 in 10.0 mi WNW 12.7 mph - N/A   Clear
12:53 PM - - - N/A% 30.23 in 10.0 mi NW 20.7 mph - N/A   Scattered Clouds
1:53 PM - - - N/A% 30.22 in 10.0 mi NNW 19.6 mph - N/A   Mostly Cloudy
2:53 PM 39.9 °F 30.2 °F 23.0 °F 51% 30.29 in 10.0 mi NNW 20.7 mph - N/A   Overcast
3:53 PM 39.0 °F 31.4 °F 25.0 °F 57% 30.32 in 10.0 mi North 12.7 mph - N/A   Overcast
4:53 PM 36.0 °F 27.1 °F 26.1 °F 67% 30.35 in 10.0 mi North 13.8 mph - N/A   Overcast
5:53 PM 34.0 °F 26.0 °F 25.0 °F 70% 30.37 in 10.0 mi NNW 10.4 mph - N/A   Overcast
6:53 PM 34.0 °F 26.6 °F 25.0 °F 70% 30.40 in 10.0 mi NNW 9.2 mph - N/A   Overcast
7:53 PM 33.1 °F 23.9 °F 23.0 °F 66% 30.43 in 10.0 mi North 12.7 mph - N/A   Overcast
8:53 PM 32.0 °F 24.2 °F 23.0 °F 69% 30.45 in 10.0 mi NNW 9.2 mph - N/A   Overcast
9:15 PM 32.0 °F 23.6 °F 23.0 °F 69% 30.37 in 10.0 mi NNW 10.4 mph - N/A   Overcast
9:26 PM 32.0 °F 23.6 °F 23.0 °F 69% 30.38 in 10.0 mi NNW 10.4 mph - N/A   Overcast
9:53 PM 32.0 °F 23.0 °F 23.0 °F 69% 30.45 in 10.0 mi NNW 11.5 mph - N/A   Overcast
10:13 PM 32.0 °F 22.1 °F 24.1 °F 73% 30.38 in 10.0 mi North 13.8 mph - N/A   Overcast
10:20 PM 30.9 °F 20.7 °F 24.1 °F 76% 30.38 in 10.0 mi North 13.8 mph - N/A   Overcast
10:53 PM 30.9 °F 21.2 °F 25.0 °F 79% 30.44 in 10.0 mi NNW 12.7 mph - N/A   Overcast
11:10 PM 30.9 °F 22.2 °F 25.0 °F 79% 30.38 in 10.0 mi NNW 10.4 mph - N/A   Overcast
11:28 PM 30.0 °F 21.1 °F 25.0 °F 82% 30.39 in 10.0 mi NNW 10.4 mph - N/A   Overcast
11:53 PM 30.0 °F 21.1 °F 25.0 °F 82% 30.45 in 10.0 mi NNW 10.4 mph - N/A   Overcast